WC4PEM-13 Weather Reports


time (UTC)temp
C
wind
direction
speed
KPH
gust
KPH
rain 1hr
cm
rain 24hr
cm
rain mn
cm
humidity
%
barometer
mb
20260503072734 20 311 9.7 9.7 0.03 0.33 0.20 96 1014.0
20260503072234 20 325 11.3 19.3 0.03 0.33 0.20 96 1013.9
20260503071734 20 311 11.3 19.3 0.03 0.33 0.20 96 1013.9
20260503071234 20 341 8.0 16.1 0.03 0.33 0.20 96 1013.8
20260503070734 20 327 8.0 16.1 0.03 0.33 0.20 96 1014.0
20260503070234 20 340 11.3 14.5 0.03 0.33 0.20 96 1013.9
20260503060234 20 349 4.8 11.3 0.18 0.30 0.18 94 1013.6
20260503054734 21 302 8.0 12.9 0.00 0.13 0.00 94 1014.5
20260503054234 21 294 6.4 12.9 0.00 0.13 0.00 94 1014.4
20260503053734 21 317 4.8 8.0 0.00 0.13 0.00 94 1014.4
20260503053609 21 291 3.2 6.4 0.00 0.13 0.00 94 1014.4
20260503053234 21 291 3.2 6.4 0.00 0.13 0.00 94 1014.4
20260503052734 21 265 1.6 4.8 0.00 0.13 0.00 94 1014.5
20260503052235 21 254 1.6 3.2 0.00 0.13 0.00 94 1014.4
20260503051735 21 221 3.2 3.2 0.00 0.13 0.00 94 1014.5
20260503051235 21 190 3.2 6.4 0.00 0.13 0.00 94 1014.5
20260503050734 21 178 3.2 4.8 0.00 0.13 0.00 94 1014.6
20260503050235 21 196 1.6 4.8 0.00 0.13 0.00 94 1014.6
20260503050210 21 190 3.2 4.8 0.00 0.13 0.00 94 1014.4
20260503045735 21 190 3.2 4.8 0.00 0.13 0.00 94 1014.4
20260503045235 21 291 3.2 6.4 0.00 0.13 0.00 94 1014.5
20260503044735 21 257 3.2 6.4 0.00 0.13 0.00 94 1014.5
20260503044541 21 254 3.2 9.7 0.00 0.13 0.00 94 1014.5
20260503044235 21 254 3.2 9.7 0.00 0.13 0.00 94 1014.5
20260503044102 21 282 4.8 6.4 0.00 0.13 0.00 94 1014.4
20260503044016 21 282 4.8 6.4 0.00 0.13 0.00 94 1014.4
20260503043735 21 282 4.8 6.4 0.00 0.13 0.00 94 1014.4
20260503043235 20 265 4.8 11.3 0.00 0.13 0.00 94 1014.3
20260503043143 20 286 4.8 11.3 0.00 0.13 0.00 94 1014.3
20260503042735 20 286 4.8 11.3 0.00 0.13 0.00 94 1014.3
20260503042235 20 245 3.2 6.4 0.00 0.13 0.00 94 1014.2
20260503041735 20 198 3.2 6.4 0.00 0.13 0.00 94 1014.2
20260503041559 20 178 3.2 4.8 0.00 0.13 0.00 94 1014.0
20260503041416 20 178 3.2 4.8 0.00 0.13 0.00 94 1014.0
20260503041235 20 178 3.2 4.8 0.00 0.13 0.00 94 1014.0
20260503040735 20 221 4.8 6.4 0.00 0.13 0.00 94 1013.8
20260503040641 20 295 4.8 6.4 0.00 0.13 0.00 94 1013.7
20260503040235 20 295 4.8 6.4 0.00 0.13 0.00 94 1013.7
20260503040150 20 298 6.4 8.0 0.00 0.13 0.00 94 1013.6
20260503035913 20 295 4.8 8.0 0.00 0.13 0.00 94 1013.6
20260503035735 20 298 6.4 8.0 0.00 0.13 0.00 94 1013.6
20260503035235 20 295 4.8 8.0 0.00 0.13 0.00 94 1013.6
20260503035139 21 295 3.2 6.4 0.00 0.13 0.00 94 1013.6
20260503034735 21 295 3.2 6.4 0.00 0.13 0.00 94 1013.6
20260503034641 21 0 3.2 4.8 0.00 0.13 0.00 94 1013.5
20260503034235 21 0 3.2 4.8 0.00 0.13 0.00 94 1013.5
20260503034139 21 205 3.2 4.8 0.00 0.13 0.00 94 1013.5
20260503033735 21 205 3.2 4.8 0.00 0.13 0.00 94 1013.5
20260503033541 21 236 3.2 8.0 0.00 0.13 0.00 94 1013.2
20260503033235 21 236 3.2 8.0 0.00 0.13 0.00 94 1013.2
20260503032735 20 265 3.2 9.7 0.00 0.13 0.00 94 1013.3
20260503032235 21 209 4.8 8.0 0.00 0.13 0.00 94 1013.4
20260503031735 21 185 4.8 6.4 0.00 0.13 0.00 94 1013.4
20260503031235 21 198 4.8 6.4 0.00 0.13 0.00 94 1013.4
20260503030735 20 215 4.8 6.4 0.00 0.13 0.00 94 1013.5
20260503030235 20 198 4.8 8.0 0.00 0.13 0.00 95 1013.5
20260503025735 20 212 4.8 8.0 0.00 0.13 0.00 95 1013.4
20260503025235 21 225 4.8 9.7 0.00 0.13 0.00 95 1013.3
20260503024735 21 189 4.8 9.7 0.00 0.13 0.00 95 1013.2
20260503024235 21 236 4.8 9.7 0.00 0.13 0.00 95 1013.1
20260503023735 21 209 6.4 11.3 0.00 0.13 0.00 95 1013.1
20260503023235 21 250 6.4 11.3 0.00 0.13 0.00 95 1013.0
20260503022735 21 265 6.4 12.9 0.00 0.13 0.00 95 1012.8
20260503022235 21 209 4.8 11.3 0.00 0.13 0.00 95 1012.6
20260503021735 21 279 6.4 11.3 0.00 0.13 0.00 95 1012.5
20260503021235 21 246 6.4 12.9 0.00 0.13 0.00 95 1012.6
20260503020735 21 268 6.4 14.5 0.00 0.13 0.00 95 1012.4
20260503020235 21 287 6.4 12.9 0.00 0.13 0.00 95 1012.1
20260503015735 21 272 6.4 12.9 0.00 0.13 0.00 95 1012.2
20260503015235 21 255 6.4 12.9 0.00 0.13 0.00 95 1012.2
20260503015058 21 254 8.0 14.5 0.00 0.13 0.00 95 1012.2
20260503014735 21 254 8.0 14.5 0.00 0.13 0.00 95 1012.2
20260503014235 21 272 8.0 12.9 0.00 0.13 0.00 95 1012.0
20260503014150 21 254 8.0 14.5 0.00 0.13 0.00 95 1012.1
20260503014020 21 261 9.7 14.5 0.00 0.13 0.00 95 1011.5
20260503013735 21 254 8.0 14.5 0.00 0.13 0.00 95 1012.1
20260503013235 21 261 9.7 14.5 0.00 0.13 0.00 95 1011.5
20260503012735 21 306 9.7 16.1 0.00 0.13 0.00 95 1011.4
20260503012235 21 275 9.7 16.1 0.00 0.13 0.00 95 1011.5
20260503012226 21 262 9.7 14.5 0.00 0.13 0.00 95 1011.3
20260503011735 21 262 9.7 14.5 0.00 0.13 0.00 95 1011.3
20260503011235 21 261 9.7 19.3 0.00 0.13 0.00 94 1011.7
20260503010735 21 294 6.4 14.5 0.00 0.13 0.00 94 1011.4
20260503010235 21 219 6.4 8.0 0.00 0.13 0.00 95 1011.2
20260503010019 21 183 4.8 11.3 0.00 0.13 0.00 95 1010.3
20260503005735 21 219 6.4 11.3 0.00 0.13 0.00 95 1010.6
20260503005235 21 183 4.8 11.3 0.00 0.13 0.00 95 1010.3
20260503004735 21 178 4.8 9.7 0.00 0.13 0.00 95 1010.0
20260503004235 21 182 4.8 11.3 0.00 0.13 0.00 95 1009.6
20260503003735 21 146 4.8 11.3 0.00 0.13 0.00 95 1009.5
20260503003235 21 193 4.8 9.7 0.00 0.13 0.00 95 1010.5
20260503002735 21 80 8.0 11.3 0.03 0.13 0.00 95 1010.4
20260503002235 21 191 6.4 14.5 0.03 0.13 0.00 95 1010.9
20260503001735 21 178 6.4 12.9 0.03 0.13 0.00 95 1011.0
20260503001235 21 178 410.4 9.7 0.03 0.13 0.00 95 1011.2
20260503000735 21 178 410.4 8.0 0.03 0.13 0.00 95 1010.7
20260503000235 21 173 6.4 9.7 0.03 0.13 0.00 95 1010.8
20260502235735 21 184 6.4 11.3 0.03 0.13 0.13 95 1011.0
20260502235235 21 194 4.8 12.9 0.05 0.13 0.13 95 1011.1
20260502234735 21 178 3.2 9.7 0.10 0.13 0.13 95 1011.0
20260502234623 21 193 1.6 4.8 0.10 0.13 0.13 95 1010.8
20260502234235 21 193 1.6 4.8 0.10 0.13 0.13 95 1010.8
20260502233735 21 80 1.6 3.2 0.13 0.13 0.13 95 1010.3
20260502233235 21 200 1.6 4.8 0.13 0.13 0.13 95 1010.8
20260502232735 21 196 1.6 3.2 0.10 0.10 0.10 95 1011.0
20260502232235 21 205 3.2 4.8 0.10 0.10 0.10 94 1011.2
20260502231735 21 193 4.8 6.4 0.10 0.10 0.10 94 1011.2
20260502231513 21 193 6.4 11.3 0.10 0.10 0.10 94 1011.5
20260502231235 21 193 6.4 11.3 0.10 0.10 0.10 94 1011.5
20260502230735 21 178 6.4 9.7 0.10 0.10 0.10 93 1011.4
20260502230449 21 175 4.8 9.7 0.10 0.10 0.10 93 1011.2
20260502230235 21 175 4.8 9.7 0.10 0.10 0.10 93 1011.2
20260502225735 21 178 3.2 6.4 0.10 0.10 0.10 92 1011.4
20260502225235 22 245 4.8 6.4 0.08 0.08 0.08 91 1011.4
20260502225014 22 196 8.0 17.7 0.03 0.03 0.03 90 1011.9
20260502224735 22 196 8.0 17.7 0.03 0.03 0.03 90 1011.9
20260502224715 22 225 8.0 16.1 0.03 0.03 0.03 89 1011.9
20260502224235 22 225 8.0 16.1 0.03 0.03 0.03 89 1011.9
20260502223735 22 218 9.7 14.5 0.00 0.00 0.00 88 1011.8
20260502223410 23 281 14.5 19.3 0.00 0.00 0.00 87 1011.5
20260502223235 23 281 14.5 19.3 0.00 0.00 0.00 87 1011.5
20260502222735 23 292 16.1 22.5 0.00 0.00 0.00 85 1011.7
20260502222235 23 254 17.7 29.0 0.00 0.00 0.00 82 1011.6
20260502221735 24 275 17.7 29.0 0.00 0.00 0.00 80 1011.3
20260502221235 24 294 14.5 27.4 0.00 0.00 0.00 78 1011.3
20260502220735 24 300 12.9 24.1 0.00 0.00 0.00 77 1011.4
20260502220235 24 279 12.9 20.9 0.00 0.00 0.00 76 1011.2
20260502215735 24 266 14.5 20.9 0.00 0.00 0.00 75 1011.2
20260502215640 24 287 14.5 22.5 0.00 0.00 0.00 75 1011.0
20260502215235 24 287 14.5 22.5 0.00 0.00 0.00 75 1011.0
20260502214735 24 289 14.5 22.5 0.00 0.00 0.00 74 1011.0
20260502214235 25 286 14.5 22.5 0.00 0.00 0.00 73 1011.0
20260502213735 25 296 12.9 19.3 0.00 0.00 0.00 73 1010.8
20260502213235 25 306 17.7 20.9 0.00 0.00 0.00 72 1010.8
20260502212735 25 317 20.9 25.7 0.00 0.00 0.00 71 1010.8
20260502212235 25 302 20.9 32.2 0.00 0.00 0.00 70 1010.8
20260502211735 25 295 17.7 35.4 0.00 0.00 0.00 69 1010.8
20260502211235 26 313 17.7 25.7 0.00 0.00 0.00 68 1010.8
20260502210735 26 334 19.3 33.8 0.00 0.00 0.00 66 1010.5
20260502210235 27 307 16.1 30.6 0.00 0.00 0.00 66 1010.6
20260502205735 28 317 12.9 32.2 0.00 0.00 0.00 68 1010.5
20260502205235 28 336 11.3 19.3 0.00 0.00 0.00 69 1010.4
20260502204735 28 261 11.3 17.7 0.00 0.00 0.00 69 1010.4
20260502204235 28 293 11.3 17.7 0.00 0.00 0.00 68 1010.3
20260502203735 28 291 11.3 19.3 0.00 0.00 0.00 68 1010.4
20260502203235 28 280 12.9 22.5 0.00 0.00 0.00 67 1010.3
20260502202735 28 290 11.3 19.3 0.00 0.00 0.00 66 1010.5
20260502202235 28 297 12.9 24.1 0.00 0.00 0.00 66 1010.4
20260502201735 29 294 12.9 22.5 0.00 0.00 0.00 65 1010.4
20260502201235 29 286 12.9 24.1 0.00 0.00 0.00 65 1010.3
20260502200735 29 209 14.5 24.1 0.00 0.00 0.00 64 1010.1
20260502200235 29 236 14.5 27.4 0.00 0.00 0.00 63 1010.2
20260502195735 29 273 11.3 24.1 0.00 0.00 0.00 63 1010.2
20260502195235 29 227 11.3 22.5 0.00 0.00 0.00 65 1010.1
20260502194735 29 279 11.3 24.1 0.00 0.00 0.00 63 1010.3
20260502194235 30 224 14.5 22.5 0.00 0.00 0.00 64 1010.3
20260502193736 30 279 14.5 29.0 0.00 0.00 0.00 63 1010.3
20260502193235 30 292 12.9 24.1 0.00 0.00 0.00 64 1010.3
20260502192736 30 273 12.9 20.9 0.00 0.00 0.00 63 1010.4
20260502192235 30 265 12.9 29.0 0.00 0.00 0.00 62 1010.4
20260502191736 30 266 12.9 22.5 0.00 0.00 0.00 62 1010.5
20260502191236 30 249 12.9 27.4 0.00 0.00 0.00 62 1010.5
20260502190735 31 208 14.5 19.3 0.00 0.00 0.00 61 1010.5
20260502190236 31 268 14.5 29.0 0.00 0.00 0.00 61 1010.6
20260502185735 31 267 14.5 24.1 0.00 0.00 0.00 61 1010.6
20260502185236 31 254 16.1 37.0 0.00 0.00 0.00 61 1010.6
20260502184736 31 290 16.1 30.6 0.00 0.00 0.00 59 1010.6
20260502184236 31 247 16.1 32.2 0.00 0.00 0.00 58 1010.6
20260502183736 31 248 14.5 24.1 0.00 0.00 0.00 58 1010.6
20260502183236 31 189 17.7 30.6 0.00 0.00 0.00 59 1010.7
20260502182736 31 273 17.7 30.6 0.00 0.00 0.00 58 1010.5
20260502182236 31 261 16.1 30.6 0.00 0.00 0.00 58 1010.5
20260502181736 31 221 14.5 25.7 0.00 0.00 0.00 56 1010.5
20260502181236 31 259 12.9 29.0 0.00 0.00 0.00 56 1010.5
20260502180736 31 194 14.5 25.7 0.00 0.00 0.00 58 1010.4
20260502180236 31 190 16.1 27.4 0.00 0.00 0.00 59 1010.4
20260502170236 31 198 12.9 20.9 0.00 0.00 0.00 61 1011.0
20260502164236 31 173 14.5 35.4 0.00 0.00 0.00 58 1010.9
20260502163736 31 229 14.5 27.4 0.00 0.00 0.00 58 1010.8
20260502163236 31 193 14.5 38.6 0.00 0.00 0.00 59 1011.1
20260502162736 31 171 14.5 25.7 0.00 0.00 0.00 61 1010.9
20260502162236 31 195 12.9 25.7 0.00 0.00 0.00 62 1011.1
20260502161736 31 178 12.9 27.4 0.00 0.00 0.00 63 1011.0
20260502161236 31 171 11.3 29.0 0.00 0.00 0.00 63 1011.1
20260502160736 30 171 11.3 32.2 0.00 0.00 0.00 65 1011.1
20260502160236 30 272 11.3 19.3 0.00 0.00 0.00 67 1011.3
20260502152236 28 234 12.9 25.7 0.00 0.00 0.00 70 1011.5
20260502151736 28 213 14.5 22.5 0.00 0.00 0.00 70 1011.5
20260502151236 28 182 14.5 27.4 0.00 0.00 0.00 69 1011.6
20260502150736 28 173 12.9 27.4 0.00 0.00 0.00 69 1011.6
20260502150236 28 195 12.9 27.4 0.00 0.00 0.00 71 1011.5
20260502130736 23 194 8.0 14.5 0.00 0.00 0.00 87 1010.9
20260502130236 23 182 8.0 19.3 0.00 0.00 0.00 88 1010.9
20260502123736 21 182 6.4 14.5 0.00 0.00 0.00 94 1010.7
20260502123236 21 173 6.4 12.9 0.00 0.00 0.00 95 1010.6
20260502122736 21 189 4.8 9.7 0.00 0.00 0.00 95 1010.6
20260502122236 20 178 4.8 11.3 0.00 0.00 0.00 96 1010.9
20260502121736 20 190 4.8 9.7 0.00 0.00 0.00 96 1010.8
20260502121236 20 186 4.8 9.7 0.00 0.00 0.00 97 1010.6
20260502120736 20 186 4.8 9.7 0.00 0.00 0.00 96 1010.8
20260502120236 20 183 4.8 12.9 0.00 0.00 0.00 96 1010.8
20260502115736 20 171 4.8 11.3 0.00 0.00 0.00 97 1010.8
20260502115236 20 178 4.8 9.7 0.00 0.00 0.00 96 1010.8
20260502114736 20 205 6.4 9.7 0.00 0.00 0.00 96 1010.6
20260502114236 20 182 6.4 14.5 0.00 0.00 0.00 96 1010.6
20260502113736 20 187 4.8 11.3 0.00 0.00 0.00 96 1010.5
20260502113236 20 221 4.8 9.7 0.00 0.00 0.00 96 1010.7
20260502112736 20 205 6.4 16.1 0.00 0.00 0.00 96 1010.6
20260502112236 19 183 6.4 11.3 0.00 0.00 0.00 96 1010.4
20260502111736 19 184 4.8 9.7 0.00 0.00 0.00 96 1010.5
20260502111236 19 187 4.8 9.7 0.00 0.00 0.00 96 1010.6
20260502110736 19 178 4.8 11.3 0.00 0.00 0.00 96 1010.4
20260502110236 20 190 4.8 12.9 0.00 0.00 0.00 96 1010.6
20260502105736 20 194 6.4 9.7 0.00 0.00 0.00 96 1010.4
20260502105236 20 191 6.4 12.9 0.00 0.00 0.00 96 1010.1
20260502104736 20 185 4.8 8.0 0.00 0.00 0.00 96 1010.2
20260502104236 20 175 4.8 9.7 0.00 0.00 0.00 96 1010.3
20260502103736 20 178 4.8 11.3 0.00 0.00 0.00 96 1010.1
20260502103236 20 221 4.8 9.7 0.00 0.00 0.00 96 1010.4
20260502102736 20 173 4.8 9.7 0.00 0.00 0.00 96 1010.4
20260502102236 20 188 3.2 6.4 0.00 0.00 0.00 96 1010.4
20260502101736 20 178 3.2 6.4 0.00 0.00 0.00 95 1010.6
20260502101236 20 178 3.2 8.0 0.00 0.00 0.00 95 1010.6
20260502100736 20 195 3.2 6.4 0.00 0.00 0.00 95 1010.5
20260502100236 19 188 1.6 8.0 0.00 0.00 0.00 95 1010.6
20260502091237 20 209 1.6 3.2 0.00 0.00 0.00 94 1010.7
20260502090737 20 238 1.6 3.2 0.00 0.00 0.00 94 1010.6
20260502090237 20 205 1.6 3.2 0.00 0.00 0.00 94 1010.6